TimeEST,TemperatureF,Dew PointF,Humidity,Sea Level PressureIn,VisibilityMPH,Wind Direction,Wind SpeedMPH,Gust SpeedMPH,PrecipitationIn,Events,Conditions,WindDirDegrees,DateUTC
12:53 AM,57.0,46.0,67,30.18,10.0,Variable,5.8,-,N/A,,Clear,0,2012-12-04 05:53:00
1:53 AM,57.0,46.0,67,30.17,10.0,SSW,3.5,-,N/A,,Clear,200,2012-12-04 06:53:00
2:53 AM,55.9,46.0,69,30.18,10.0,SSW,3.5,-,N/A,,Clear,210,2012-12-04 07:53:00
3:53 AM,55.9,46.9,72,30.18,10.0,SSW,4.6,-,N/A,,Partly Cloudy,200,2012-12-04 08:53:00
4:53 AM,55.9,46.9,72,30.17,10.0,SSW,4.6,-,N/A,,Overcast,200,2012-12-04 09:53:00
5:53 AM,55.0,46.9,74,30.17,10.0,SSW,3.5,-,N/A,,Mostly Cloudy,200,2012-12-04 10:53:00
6:53 AM,57.0,48.0,72,30.17,10.0,SSW,3.5,-,N/A,,Overcast,210,2012-12-04 11:53:00
7:53 AM,57.0,48.0,72,30.18,10.0,SSW,3.5,-,N/A,,Overcast,210,2012-12-04 12:53:00
8:53 AM,60.1,48.9,67,30.19,10.0,Variable,3.5,-,N/A,,Mostly Cloudy,0,2012-12-04 13:53:00
9:53 AM,61.0,48.9,64,30.19,10.0,SSW,8.1,-,N/A,,Overcast,200,2012-12-04 14:53:00
10:53 AM,61.0,51.1,70,30.20,10.0,Calm,Calm,-,0.00,Rain,Light Rain,0,2012-12-04 15:53:00
11:53 AM,63.0,52.0,67,30.16,10.0,Variable,5.8,-,0.03,,Mostly Cloudy,0,2012-12-04 16:53:00
12:53 PM,66.0,52.0,60,30.13,10.0,Variable,3.5,-,N/A,,Mostly Cloudy,0,2012-12-04 17:53:00
1:53 PM,66.9,51.1,57,30.11,10.0,Variable,4.6,-,N/A,,Overcast,0,2012-12-04 18:53:00
2:53 PM,66.0,50.0,56,30.11,10.0,SW,6.9,-,N/A,,Overcast,230,2012-12-04 19:53:00
3:53 PM,64.9,50.0,58,30.09,10.0,South,8.1,25.3,N/A,,Overcast,180,2012-12-04 20:53:00
4:53 PM,64.0,50.0,60,30.10,10.0,Variable,4.6,-,N/A,,Overcast,0,2012-12-04 21:53:00
5:53 PM,64.0,50.0,60,30.11,10.0,SSW,4.6,-,N/A,,Overcast,200,2012-12-04 22:53:00
6:53 PM,64.0,48.9,58,30.11,10.0,Variable,5.8,-,N/A,,Overcast,0,2012-12-04 23:53:00
7:53 PM,63.0,50.0,63,30.12,10.0,Variable,6.9,-,N/A,,Overcast,0,2012-12-05 00:53:00
8:53 PM,61.0,51.1,70,30.12,10.0,Variable,5.8,-,0.00,,Overcast,0,2012-12-05 01:53:00
9:53 PM,60.1,51.1,72,30.11,10.0,Calm,Calm,-,0.00,,Overcast,0,2012-12-05 02:53:00
10:35 PM,57.2,53.6,88,30.15,9.0,NNW,8.1,17.3,0.00,Rain,Light Rain,340,2012-12-05 03:35:00
10:48 PM,55.4,53.6,94,30.16,5.0,North,9.2,18.4,0.01,Rain,Rain,360,2012-12-05 03:48:00
10:53 PM,54.0,52.0,93,30.15,4.0,NNE,9.2,18.4,0.01,Rain,Light Rain,20,2012-12-05 03:53:00
11:53 PM,48.0,46.9,96,30.18,4.0,Variable,5.8,-,0.08,Rain,Rain,0,2012-12-05 04:53:00